Weather in Petrovka

Ukraine / Odesa District     47°44′37″N   30°06′52″E
temp.,
°C
wind,
m/s
gust,
m/s
humid.,
%
clouds,
%
prec.,
mm/h
press.,
hPa
HPBL,
m
22 april, thu
thu2200:00+8sw33716 0.0 101730
03:00+8ssw34765 0.0 101748
06:00+7ssw32832 0.0 101829
09:00+12ssw46644 0.0 1019435
12:00+16s674732 0.1 10182042
15:00+16ssw5648100 0.1 1017979
18:00+16sse785677 0.0 1016807
21:00+13sse7126792 0.0 1017364
23 april, fri
fri2300:00+11s51376100 0.0 1016285
03:00+9s512815 0.0 1016267
06:00+7sw499164 0.1 1016192
09:00+10nw4583100 0.1 1017453
12:00+12nnw4470100 0.0 10171000
15:00+8n7878100 0.1 1018727
18:00+6nnw4788100 1.3 1019615
21:00+5w11915 2.2 102010
24 april, sat
sat2400:00+4w38904 0.0 1020145
03:00+3wnw47811 0.0 1020129
06:00+2w39855 0.0 1020195
09:00+7wnw9126887 0.0 10211161
12:00+8wnw913415 0.1 10222159
15:00+10nw81133100 0.1 10222705
18:00+9nw610415 0.0 10222473
21:00+5wnw22575 0.0 102318
25 april, sun
sun2500:00+4w226316 0.0 102419
03:00+3sw226360 0.0 102313
06:00+2sw226366 0.0 102214
09:00+9ssw47465 0.0 1021548
12:00+13ssw784671 0.0 10201801
15:00+13sw795777 0.8 10181618
18:00+13wnw565250 0.6 10181236
21:00+9nnw5968100 0.6 1019408
26 april, mon
mon2600:00+6nw4771100 1.2 1021868
03:00+3nw37775 1.3 1021151
06:00+1nw37770 0.0 1021137
09:00+6wnw57530 0.0 1021920
12:00+10wnw6840100 0.0 10212423
15:00+11wnw71038100 0.0 10192679
18:00+10nw6104399 0.0 10192185
21:00+6nnw3654100 0.0 1020116